[Iaude] MPEC F10: 2016 JE [a=0.82,e=0.47,i=16.7,H=21.7]

mpec at mpcdb1.cfa.harvard.edu mpec at mpcdb1.cfa.harvard.edu
Sun Mar 17 13:19:16 EDT 2019


M.P.E.C. 2019-F10                                Issued 2019 Mar. 17, 17:15 UT
 
     The Minor Planet Electronic Circulars contain information on unusual
         minor planets and routine data on comets.  They are published
    on behalf of Division F of the International Astronomical Union by the
          Minor Planet Center, Smithsonian Astrophysical Observatory,
                          Cambridge, MA 02138, U.S.A.

             Prepared using the Tamkin Foundation Computer Network

                              MPC at CFA.HARVARD.EDU
            URL https://www.minorplanetcenter.net/    ISSN 1523-6714


                                    2016 JE
 
                           Revision to MPEC 2016-J23
 
Additional Observations:
     K16J00E  C2013 04 13.36799212 44 30.800+51 46 48.61         20.4 GVEF010F51
     K16J00E  C2013 04 13.37903912 44 25.139+51 45 59.68         20.1 GVEF010F51
     K16J00E  C2013 04 15.37602412 29 29.413+49 16 21.83         20.8 GVEF010F51
     K16J00E  C2013 04 16.46429312 22 20.397+47 53 48.90         20.2 GVEF010F51
     K16J00E  C2013 04 16.46725812 22 19.230+47 53 35.81         19.3 GVEF010F51
     K16J00E  C2013 04 16.47627112 22 15.652+47 52 53.55         20.5 GVEF010F51
     K16J00E  C2013 04 16.47775512 22 15.083+47 52 46.85         20.2 GVEF010F51
     K16J00E  C2013 04 16.48370412 22 12.734+47 52 18.97         20.1 GVEF010F51
     K16J00E  C2013 04 16.48523012 22 12.142+47 52 11.82         20.6 GVEF010F51
     K16J00E  C2013 04 17.37100912 16 55.522+46 45 04.48         20.6 GVEF010F51
     K16J00E  C2013 04 17.37395212 16 54.477+46 44 51.35         20.6 GVEF010F51
     K16J00E  C2013 04 17.37689612 16 53.349+46 44 37.36         20.7 GVEF010F51
     K16J00E  C2013 04 17.37983912 16 52.321+46 44 24.49         20.9 GVEF010F51
     K16J00E  C2013 04 17.38278812 16 51.210+46 44 10.69         20.6 GVEF010F51
     K16J00E  C2013 04 17.39163712 16 47.958+46 43 30.22         20.7 GVEF010F51
     K16J00E  C2013 04 19.31454712 06 37.127+44 18 28.26         20.7 GVEF010F51
     K16J00E  C2013 04 19.32641312 06 33.476+44 17 35.74         20.6 GVEF010F51
     K16J00E  C2013 04 19.34071412 06 29.033+44 16 31.78         20.3 GVEF010F51
     K16J00E  C2013 04 19.35104512 06 25.820+44 15 45.14               VEF010F51
 
Observer details:
F51 Pan-STARRS 1, Haleakala.  Observers J. Bulger, K. Chambers, T. Lowe,
    E. Magnier, A. Schultz, M. Willman.  Measurers S. Chastel, M. Huber,
    Y. Ramanjooloo, R. Wainscoat, R. Weryk.  1.8-m Ritchey-Chretien + CCD.
 
First and last observations above in comparison with prediction:
Residuals in seconds of arc, reference and Delta-T
130413 F51 22.0+  6.4-    130419 F51 19.3+  3.3-    MPO382821   +0.0032 day
 
Orbital elements:
2016 JE                                                  Earth MOID = 0.1119 AU
Epoch 2019 Apr. 27.0 TT = JDT 2458600.5                 MPC
M 164.78471              (2000.0)            P               Q
n   1.32293383     Peri.  347.50772     +0.77128372     -0.59568384
a   0.8218211      Node    51.37853     +0.60588003     +0.57917632
e   0.4722255      Incl.   16.67902     +0.19501492     +0.55652094
P   0.75           H   21.7           G   0.15           U   4
Residuals in seconds of arc
130413 F51  0.0   0.2+    130419 F51  0.1+  0.1+    160503 J95  0.5-  0.2+
130413 F51  0.2-  0.1-    130419 F51  0.0   0.0     160503 J95  0.7-  0.6-
130415 F51  0.3-  0.1-    130419 F51  0.1-  0.4-    160503 I52  0.2+  0.5+
130416 F51  0.5+  0.1-    160427 F51  0.1+  0.3-    160503 I52  0.4+  0.3-
130416 F51  0.5+  0.5+    160427 F51  0.4+  0.0     160503 I52  0.3+  0.3-
130416 F51  0.0   0.0     160501 F51  0.1+  0.1-    160503 I52  0.0   0.1+
130416 F51  0.1+  0.2+    160501 F51  0.0   0.1+    160503 F51  0.0   0.1+
130416 F51  0.1-  0.0     160501 F51  0.0   0.1+    160503 F51  0.0   0.1-
130416 F51  0.1-  0.1-    160502 926  0.2+  0.2+    160503 F51  0.1-  0.0
130417 F51  0.1-  0.1+    160502 926  0.6+  0.4+    160503 F51  0.0   0.0
130417 F51  0.3+  0.4+    160502 926  0.3-  0.6+    160506 I52  0.5+  0.2+
130417 F51  0.2-  0.2-    160502 568  0.3-  0.1-    160506 I52  1.3+  0.4-
130417 F51  0.3+  0.3+    160502 568  0.3-  0.1-    160506 I52  0.3+  0.4-
130417 F51  0.1-  0.1-    160502 568  0.2-  0.1-    160527 291  0.6+  0.1+
130417 F51  0.3-  0.2-    160502 291  0.0   0.6+    160527 291  0.7-  0.4+
130419 F51  0.3-  0.3-    160502 291  0.0   0.8+

Ephemeris:
2016 JE                  a,e,i = 0.82, 0.47, 17                  q = 0.4337
Date    TT    R. A. (2000) Decl.     Delta      r     Elong.  Phase     V
2019 02 15    18 02 44.3 +11 36 58   0.4041  0.8736    61.9    94.0    22.8
...
2019 03 02    17 45 19.3 +14 02 44   0.3776  0.9869    78.4    79.6    22.3
...
2019 03 10    17 35 41.2 +15 25 09   0.3538  1.0375    87.2    72.9    22.1
...
2019 03 16    17 26 19.7 +16 35 15   0.3325  1.0710    94.1    67.8    21.8
2019 03 17    17 24 29.9 +16 47 42   0.3287  1.0763    95.3    67.0    21.8
2019 03 18    17 22 34.6 +17 00 21   0.3249  1.0814    96.5    66.1    21.8
...
2019 03 24    17 08 45.4 +18 20 33   0.3014  1.1099   104.2    60.5    21.5
...
2019 04 01    16 42 08.7 +20 13 00   0.2702  1.1422   115.6    52.1    21.1
...
2019 04 16    15 17 06.7 +22 07 08   0.2281  1.1857   139.3    33.5    20.3

A. U. Tomatic                (C) Copyright 2019 MPC           M.P.E.C. 2019-F10



More information about the Iaude mailing list